START_TIME,STEP,MOV.,H8,t_acc.,H43,t_acc.,M25,t_acc.,H9,t_acc.
1979-07-24 03:00:29.010 ,1,0,0.,12.0,0.,12.0,0.,12.0,0.,12.0
1979-07-24 03:00:41.010 ,1,0,0.,12.0,0.,12.0,0.,12.0,0.,12.0
1979-07-24 03:00:53.010 ,2,0,0.,12.0,0.,12.0,0.,12.0,0.,12.0
1979-07-24 03:01:05.010 ,2,0,1.,12.0,0.,12.0,0.,12.0,0.,12.0
1979-07-24 03:01:17.010 ,2,0,0.,12.0,0.,12.0,0.,12.0,0.,12.0
1979-07-24 03:01:29.010 ,2,0,0.,12.0,0.,12.0,0.,12.0,0.,12.0
1979-07-24 03:01:41.010 ,3,0,0.,12.0,0.,12.0,0.,12.0,0.,12.0
1979-07-24 03:01:53.010 ,3,0,0.,12.0,0.,12.0,0.,12.0,0.,12.0
1979-07-24 03:02:05.010 ,3,0,0.,12.0,0.,12.0,0.,12.0,0.,12.0
1979-07-24 03:02:17.010 ,3,0,0.,12.0,0.,12.0,0.,12.0,0.,12.0
1979-07-24 03:02:29.010 ,4,0,0.,12.0,0.,12.0,0.,12.0,0.,12.0
1979-07-24 03:02:41.010 ,4,0,0.,12.0,0.,12.0,0.,12.0,0.,12.0
1979-07-24 03:02:53.010 ,4,0,0.,12.0,0.,12.0,0.,12.0,0.,12.0
1979-07-24 03:03:05.010 ,4,0,2.,12.0,0.,12.0,0.,12.0,0.,12.0
1979-07-24 03:03:17.010 ,5,0,0.,12.0,0.,12.0,0.,12.0,0.,12.0
1979-07-24 03:03:29.010 ,5,0,0.,12.0,0.,12.0,0.,12.0,0.,12.0
1979-07-24 03:03:41.010 ,5,0,0.,12.0,0.,12.0,0.,12.0,0.,12.0
1979-07-24 03:03:53.010 ,5,0,1.,12.0,0.,12.0,0.,12.0,0.,12.0
1979-07-24 03:04:05.010 ,6,0,0.,12.0,0.,12.0,0.,12.0,0.,12.0
1979-07-24 03:04:17.010 ,6,0,0.,12.0,0.,12.0,0.,12.0,0.,12.0
1979-07-24 03:04:29.010 ,6,0,0.,12.0,0.,12.0,0.,12.0,0.,12.0
1979-07-24 03:04:41.010 ,6,0,0.,12.0,0.,12.0,0.,12.0,0.,12.0
1979-07-24 03:04:53.010 ,7,0,2.,12.0,0.,12.0,0.,12.0,0.,12.0
1979-07-24 03:05:05.010 ,7,0,0.,12.0,0.,12.0,0.,12.0,0.,12.0
1979-07-24 03:05:17.010 ,7,0,0.,12.0,0.,12.0,0.,12.0,0.,12.0
1979-07-24 03:05:29.010 ,7,0,0.,12.0,0.,12.0,0.,12.0,0.,12.0
1979-07-24 03:05:41.010 ,7,0,0.,12.0,0.,12.0,0.,12.0,0.,12.0
1979-07-24 03:05:53.010 ,7,0,0.,12.0,0.,12.0,0.,12.0,0.,12.0
1979-07-24 03:06:05.010 ,7,0,0.,12.0,0.,12.0,0.,12.0,0.,12.0
1979-07-24 03:06:17.010 ,7,0,0.,12.0,0.,12.0,0.,12.0,0.,12.0
1979-07-24 03:06:29.010 ,6,0,0.,12.0,0.,12.0,0.,12.0,0.,12.0
1979-07-24 03:06:41.010 ,6,0,0.,12.0,0.,12.0,0.,12.0,0.,12.0
1979-07-24 03:06:53.010 ,6,0,0.,12.0,0.,12.0,0.,12.0,0.,12.0
1979-07-24 03:07:05.010 ,6,0,0.,12.0,0.,12.0,0.,12.0,0.,12.0
1979-07-24 03:07:17.010 ,5,0,0.,12.0,0.,12.0,0.,12.0,0.,12.0
1979-07-24 03:07:29.010 ,5,0,0.,12.0,0.,12.0,0.,12.0,0.,12.0
1979-07-24 03:07:41.010 ,5,0,0.,12.0,0.,12.0,0.,12.0,0.,12.0
1979-07-24 03:07:53.010 ,5,0,0.,12.0,0.,12.0,0.,12.0,0.,12.0
1979-07-24 03:08:05.010 ,4,0,0.,12.0,0.,12.0,0.,12.0,0.,12.0
1979-07-24 03:08:17.010 ,4,0,0.,12.0,0.,12.0,0.,12.0,0.,12.0
1979-07-24 03:08:29.010 ,4,0,0.,12.0,0.,12.0,0.,12.0,0.,12.0
1979-07-24 03:08:41.010 ,4,0,1.,12.0,0.,12.0,0.,12.0,0.,12.0
1979-07-24 03:08:53.010 ,3,0,0.,12.0,0.,12.0,0.,12.0,0.,12.0
1979-07-24 03:09:05.010 ,3,0,0.,12.0,0.,12.0,0.,12.0,0.,12.0
1979-07-24 03:09:17.010 ,3,0,0.,12.0,0.,12.0,0.,12.0,0.,12.0
1979-07-24 03:09:29.010 ,3,0,0.,12.0,0.,12.0,0.,12.0,0.,12.0
1979-07-24 03:09:41.010 ,2,0,0.,12.0,0.,12.0,0.,12.0,0.,12.0
1979-07-24 03:09:53.010 ,2,0,0.,12.0,0.,12.0,0.,12.0,0.,12.0
1979-07-24 03:10:05.010 ,2,0,0.,12.0,0.,12.0,0.,12.0,0.,12.0
1979-07-24 03:10:17.010 ,2,0,0.,12.0,0.,12.0,0.,12.0,0.,12.0
1979-07-24 03:10:29.010 ,1,0,1.,12.0,0.,12.0,0.,12.0,0.,12.0
1979-07-24 03:10:41.010 ,1,0,0.,12.0,0.,12.0,0.,12.0,0.,12.0
1979-07-24 03:10:53.010 ,1,0,0.,12.0,0.,12.0,0.,12.0,0.,12.0
1979-07-24 03:11:05.010 ,1,0,0.,12.0,0.,12.0,0.,12.0,0.,12.0
1979-07-24 03:11:17.010 ,0,0,0.,12.0,0.,12.0,0.,12.0,0.,12.0
1979-07-24 03:11:29.010 ,0,0,0.,12.0,0.,12.0,0.,12.0,0.,12.0
1979-07-24 03:11:41.010 ,0,0,5.,12.0,0.,12.0,0.,12.0,0.,12.0
1979-07-24 03:11:53.010 ,0,0,0.,12.0,0.,12.0,0.,12.0,0.,12.0
1979-07-24 03:12:05.010 ,0,0,2.,12.0,0.,12.0,0.,12.0,0.,12.0
1979-07-24 03:12:17.010 ,0,0,2.,12.0,0.,12.0,0.,12.0,0.,12.0
1979-07-24 03:12:29.010 ,0,0,2.,12.0,0.,12.0,0.,12.0,0.,12.0
1979-07-24 03:12:41.010 ,0,0,1.,12.0,0.,12.0,0.,12.0,0.,12.0
1979-07-24 03:12:53.010 ,1,0,3.,12.0,0.,12.0,0.,12.0,0.,12.0
1979-07-24 03:13:05.010 ,1,0,1.,12.0,0.,12.0,0.,12.0,0.,12.0
1979-07-24 03:13:17.010 ,1,0,0.,12.0,0.,12.0,0.,12.0,0.,12.0
1979-07-24 03:13:29.010 ,1,0,1.,12.0,0.,12.0,0.,12.0,0.,12.0
1979-07-24 03:13:41.010 ,2,0,1.,12.0,0.,12.0,0.,12.0,0.,12.0
1979-07-24 03:13:53.010 ,2,0,0.,12.0,0.,12.0,0.,12.0,0.,12.0
1979-07-24 03:14:05.010 ,2,0,0.,12.0,0.,12.0,0.,12.0,0.,12.0
1979-07-24 03:14:17.010 ,2,0,0.,12.0,0.,12.0,0.,12.0,0.,12.0
1979-07-24 03:14:29.010 ,3,0,0.,12.0,0.,12.0,0.,12.0,0.,12.0
1979-07-24 03:14:41.010 ,3,0,1.,12.0,0.,12.0,0.,12.0,0.,12.0
1979-07-24 03:14:53.010 ,3,0,0.,12.0,0.,12.0,0.,12.0,0.,12.0
1979-07-24 03:15:05.010 ,3,0,0.,12.0,0.,12.0,0.,12.0,0.,12.0
1979-07-24 03:15:17.010 ,4,0,0.,12.0,0.,12.0,0.,12.0,0.,12.0
1979-07-24 03:15:29.010 ,4,0,0.,12.0,0.,12.0,0.,12.0,0.,12.0
1979-07-24 03:15:41.010 ,4,0,2.,12.0,0.,12.0,0.,12.0,0.,12.0
1979-07-24 03:15:53.010 ,4,0,1.,12.0,0.,12.0,0.,12.0,0.,12.0
1979-07-24 03:16:05.010 ,5,0,0.,12.0,0.,12.0,0.,12.0,0.,12.0
1979-07-24 03:16:17.010 ,5,0,0.,12.0,0.,12.0,0.,12.0,0.,12.0
1979-07-24 03:16:29.010 ,5,0,1.,12.0,0.,12.0,0.,12.0,0.,12.0
1979-07-24 03:16:41.010 ,5,0,1.,12.0,0.,12.0,0.,12.0,0.,12.0
1979-07-24 03:16:53.010 ,6,0,0.,12.0,0.,12.0,0.,12.0,0.,12.0
1979-07-24 03:17:05.010 ,6,0,3.,12.0,0.,12.0,0.,12.0,0.,12.0
1979-07-24 03:17:17.010 ,6,0,0.,12.0,0.,12.0,0.,12.0,0.,12.0
1979-07-24 03:17:29.010 ,6,0,0.,12.0,0.,12.0,0.,12.0,0.,12.0
1979-07-24 03:17:41.010 ,7,0,0.,12.0,0.,12.0,0.,12.0,0.,12.0
1979-07-24 03:17:53.010 ,7,0,0.,12.0,0.,12.0,0.,12.0,0.,12.0
1979-07-24 03:18:05.010 ,7,0,0.,12.0,0.,12.0,0.,12.0,0.,12.0
1979-07-24 03:18:17.010 ,7,0,0.,12.0,0.,12.0,0.,12.0,0.,12.0
1979-07-24 03:18:29.010 ,7,0,0.,12.0,0.,12.0,0.,12.0,0.,12.0
1979-07-24 03:18:41.010 ,7,0,0.,12.0,0.,12.0,0.,12.0,0.,12.0
1979-07-24 03:18:53.010 ,7,0,0.,12.0,0.,12.0,0.,12.0,0.,12.0
1979-07-24 03:19:05.010 ,7,0,0.,12.0,0.,12.0,0.,12.0,0.,12.0
1979-07-24 03:19:17.010 ,6,0,0.,12.0,0.,12.0,0.,12.0,0.,12.0
1979-07-24 03:19:29.010 ,6,0,0.,12.0,0.,12.0,0.,12.0,0.,12.0
1979-07-24 03:19:41.010 ,6,0,0.,12.0,0.,12.0,0.,12.0,0.,12.0
1979-07-24 03:19:53.010 ,6,0,0.,12.0,0.,12.0,0.,12.0,0.,12.0
1979-07-24 03:20:05.010 ,5,0,0.,12.0,0.,12.0,0.,12.0,0.,12.0
1979-07-24 03:20:17.010 ,5,0,0.,12.0,0.,12.0,0.,12.0,0.,12.0
1979-07-24 03:20:29.010 ,5,0,1.,12.0,0.,12.0,0.,12.0,0.,12.0
1979-07-24 03:20:41.010 ,5,0,3.,12.0,0.,12.0,0.,12.0,0.,12.0
1979-07-24 03:20:53.010 ,4,0,0.,12.0,0.,12.0,0.,12.0,0.,12.0
1979-07-24 03:21:05.010 ,4,0,1.,12.0,0.,12.0,0.,12.0,0.,12.0
1979-07-24 03:21:17.010 ,4,0,0.,12.0,0.,12.0,0.,12.0,0.,12.0
1979-07-24 03:21:29.010 ,4,0,0.,12.0,0.,12.0,0.,12.0,0.,12.0
1979-07-24 03:21:41.010 ,3,0,0.,12.0,0.,12.0,0.,12.0,0.,12.0
1979-07-24 03:21:53.010 ,3,0,0.,12.0,0.,12.0,0.,12.0,0.,12.0
1979-07-24 03:22:05.010 ,3,0,0.,12.0,0.,12.0,0.,12.0,0.,12.0
1979-07-24 03:22:17.010 ,3,0,0.,12.0,0.,12.0,0.,12.0,0.,12.0
1979-07-24 03:22:29.010 ,2,0,0.,12.0,0.,12.0,0.,12.0,0.,12.0
1979-07-24 03:22:41.010 ,2,0,0.,12.0,0.,12.0,0.,12.0,0.,12.0
1979-07-24 03:22:53.010 ,2,0,0.,12.0,0.,12.0,0.,12.0,0.,12.0
1979-07-24 03:23:05.010 ,2,0,0.,12.0,0.,12.0,0.,12.0,0.,12.0
1979-07-24 03:23:17.010 ,1,0,2.,12.0,0.,12.0,0.,12.0,0.,12.0
1979-07-24 03:23:29.010 ,1,0,0.,12.0,0.,12.0,0.,12.0,0.,12.0
1979-07-24 03:23:41.010 ,1,0,1.,12.0,0.,12.0,0.,12.0,0.,12.0
1979-07-24 03:23:53.010 ,1,0,0.,12.0,0.,12.0,0.,12.0,0.,12.0
1979-07-24 03:24:05.010 ,0,0,1.,12.0,0.,12.0,0.,12.0,0.,12.0
1979-07-24 03:24:17.010 ,0,0,1.,12.0,0.,12.0,0.,12.0,0.,12.0
1979-07-24 03:24:29.010 ,0,0,1.,12.0,0.,12.0,0.,12.0,0.,12.0
1979-07-24 03:24:41.010 ,0,0,3.,12.0,0.,12.0,0.,12.0,0.,12.0
1979-07-24 03:24:53.010 ,0,0,3.,12.0,0.,12.0,0.,12.0,0.,12.0
1979-07-24 03:25:05.010 ,0,0,0.,12.0,0.,12.0,0.,12.0,0.,12.0
1979-07-24 03:25:17.010 ,0,0,0.,12.0,0.,12.0,0.,12.0,0.,12.0
1979-07-24 03:25:29.010 ,0,0,1.,12.0,0.,12.0,0.,12.0,0.,12.0
1979-07-24 03:25:41.010 ,1,0,1.,12.0,0.,12.0,0.,12.0,0.,12.0
1979-07-24 03:25:53.010 ,1,0,1.,12.0,0.,12.0,0.,12.0,0.,12.0
1979-07-24 03:26:05.010 ,1,0,3.,12.0,0.,12.0,0.,12.0,0.,12.0
1979-07-24 03:26:17.010 ,1,0,2.,12.0,0.,12.0,0.,12.0,0.,12.0
1979-07-24 03:26:29.010 ,2,0,0.,12.0,0.,12.0,0.,12.0,0.,12.0
1979-07-24 03:26:41.010 ,2,0,0.,12.0,0.,12.0,0.,12.0,0.,12.0
1979-07-24 03:26:53.010 ,2,0,0.,12.0,0.,12.0,0.,12.0,0.,12.0
1979-07-24 03:27:05.010 ,2,0,0.,12.0,0.,12.0,0.,12.0,0.,12.0
1979-07-24 03:27:17.010 ,3,0,1.,12.0,0.,12.0,0.,12.0,0.,12.0
1979-07-24 03:27:29.010 ,3,0,0.,12.0,0.,12.0,0.,12.0,0.,12.0
1979-07-24 03:27:41.010 ,3,0,0.,12.0,0.,12.0,0.,12.0,0.,12.0
1979-07-24 03:27:53.010 ,3,0,0.,12.0,0.,12.0,0.,12.0,0.,12.0
1979-07-24 03:28:05.010 ,4,0,0.,12.0,0.,12.0,0.,12.0,0.,12.0
1979-07-24 03:28:17.010 ,4,0,0.,12.0,0.,12.0,0.,12.0,0.,12.0
1979-07-24 03:28:29.010 ,4,0,0.,12.0,0.,12.0,0.,12.0,0.,12.0
1979-07-24 03:28:41.010 ,4,0,0.,12.0,0.,12.0,0.,12.0,0.,12.0
1979-07-24 03:28:53.010 ,5,0,2.,12.0,0.,12.0,0.,12.0,0.,12.0
1979-07-24 03:29:05.010 ,5,0,0.,12.0,0.,12.0,0.,12.0,0.,12.0
1979-07-24 03:29:17.010 ,5,0,1.,12.0,0.,12.0,0.,12.0,0.,12.0
1979-07-24 03:29:29.010 ,5,0,0.,12.0,0.,12.0,0.,12.0,0.,12.0
1979-07-24 03:29:41.010 ,6,0,0.,12.0,0.,12.0,0.,12.0,0.,12.0
1979-07-24 03:29:53.010 ,6,0,2.,12.0,0.,12.0,0.,12.0,0.,12.0
1979-07-24 03:30:05.010 ,6,0,2.,12.0,0.,12.0,0.,12.0,0.,12.0
1979-07-24 03:30:17.010 ,6,0,0.,12.0,0.,12.0,0.,12.0,0.,12.0
1979-07-24 03:30:29.010 ,7,0,0.,12.0,0.,12.0,0.,12.0,0.,12.0
1979-07-24 03:30:41.010 ,7,0,0.,12.0,0.,12.0,0.,12.0,0.,12.0
1979-07-24 03:30:53.010 ,7,0,0.,12.0,0.,12.0,0.,12.0,0.,12.0
1979-07-24 03:31:05.010 ,7,0,0.,12.0,0.,12.0,0.,12.0,0.,12.0
1979-07-24 03:31:17.010 ,3,1,0.,12.0,0.,12.0,0.,12.0,0.,12.0
1979-07-24 03:31:29.010 ,3,1,1.,12.0,0.,12.0,0.,12.0,0.,12.0
1979-07-24 03:31:41.010 ,0,1,0.,12.0,0.,12.0,0.,12.0,0.,12.0
1979-07-24 03:31:53.010 ,0,1,0.,12.0,0.,12.0,0.,12.0,0.,12.0
1979-07-24 03:32:05.010 ,4,1,0.,12.0,0.,12.0,0.,12.0,0.,12.0
1979-07-24 03:32:17.010 ,4,1,1.,12.0,0.,12.0,0.,12.0,0.,12.0
1979-07-24 03:32:29.010 ,7,1,0.,12.0,0.,12.0,0.,12.0,0.,12.0
1979-07-24 03:32:41.010 ,7,1,0.,12.0,0.,12.0,0.,12.0,0.,12.0
1979-07-24 03:32:53.010 ,3,1,0.,12.0,0.,12.0,0.,12.0,0.,12.0
1979-07-24 03:33:05.010 ,3,1,0.,12.0,0.,12.0,0.,12.0,0.,12.0
1979-07-24 03:33:17.010 ,0,1,0.,12.0,0.,12.0,0.,12.0,0.,12.0
1979-07-24 03:33:29.010 ,0,1,2.,12.0,0.,12.0,0.,12.0,0.,12.0
1979-07-24 03:33:41.010 ,4,1,0.,12.0,0.,12.0,0.,12.0,0.,12.0
1979-07-24 03:33:53.010 ,4,1,1.,12.0,0.,12.0,0.,12.0,0.,12.0
1979-07-24 03:34:05.010 ,7,1,1.,12.0,0.,12.0,0.,12.0,0.,12.0
1979-07-24 03:34:17.010 ,7,1,0.,12.0,0.,12.0,0.,12.0,0.,12.0
1979-07-24 03:34:29.010 ,3,1,0.,12.0,0.,12.0,0.,12.0,0.,12.0
1979-07-24 03:34:41.010 ,3,1,0.,12.0,0.,12.0,0.,12.0,0.,12.0
1979-07-24 03:34:53.010 ,0,1,0.,12.0,0.,12.0,0.,12.0,0.,12.0
1979-07-24 03:35:05.010 ,0,1,0.,12.0,0.,12.0,0.,12.0,0.,12.0
1979-07-24 03:35:17.010 ,4,1,0.,12.0,0.,12.0,0.,12.0,0.,12.0
1979-07-24 03:35:29.010 ,4,1,0.,12.0,0.,12.0,0.,12.0,0.,12.0
1979-07-24 03:35:41.010 ,7,1,0.,12.0,0.,12.0,0.,12.0,0.,12.0
1979-07-24 03:35:53.010 ,7,1,0.,12.0,0.,12.0,0.,12.0,0.,12.0
1979-07-24 03:36:05.010 ,3,1,0.,12.0,0.,12.0,0.,12.0,0.,12.0
1979-07-24 03:36:17.010 ,3,1,0.,12.0,0.,12.0,0.,12.0,0.,12.0
1979-07-24 03:36:29.010 ,0,1,0.,12.0,0.,12.0,0.,12.0,0.,12.0
1979-07-24 03:36:41.010 ,0,1,2.,12.0,0.,12.0,0.,12.0,0.,12.0
1979-07-24 03:36:53.010 ,4,1,0.,12.0,0.,12.0,0.,12.0,0.,12.0
1979-07-24 03:37:05.010 ,4,1,0.,12.0,0.,12.0,0.,12.0,0.,12.0
1979-07-24 03:37:17.010 ,7,1,0.,12.0,0.,12.0,0.,12.0,0.,12.0
1979-07-24 03:37:29.010 ,7,1,0.,12.0,0.,12.0,0.,12.0,0.,12.0
1979-07-24 03:37:41.010 ,3,1,0.,12.0,0.,12.0,0.,12.0,0.,12.0
1979-07-24 03:37:53.010 ,3,1,0.,12.0,0.,12.0,0.,12.0,0.,12.0
1979-07-24 03:38:05.010 ,0,1,0.,12.0,0.,12.0,0.,12.0,0.,12.0
1979-07-24 03:38:17.010 ,0,1,1.,12.0,0.,12.0,0.,12.0,0.,12.0
1979-07-24 03:38:29.010 ,4,1,0.,12.0,0.,12.0,0.,12.0,0.,12.0
1979-07-24 03:38:41.010 ,4,1,0.,12.0,0.,12.0,0.,12.0,0.,12.0
1979-07-24 03:38:53.010 ,7,1,0.,12.0,0.,12.0,0.,12.0,0.,12.0
1979-07-24 03:39:05.010 ,7,1,0.,12.0,0.,12.0,0.,12.0,0.,12.0
1979-07-24 03:39:17.010 ,3,1,1.,12.0,0.,12.0,0.,12.0,0.,12.0
1979-07-24 03:39:29.010 ,3,1,0.,12.0,0.,12.0,0.,12.0,0.,12.0
1979-07-24 03:39:41.010 ,0,1,2.,12.0,0.,12.0,0.,12.0,0.,12.0
1979-07-24 03:39:53.010 ,0,1,1.,12.0,0.,12.0,0.,12.0,0.,12.0
1979-07-24 03:40:05.010 ,4,1,2.,12.0,0.,12.0,0.,12.0,0.,12.0
1979-07-24 03:40:17.010 ,4,1,0.,12.0,0.,12.0,0.,12.0,0.,12.0
1979-07-24 03:40:29.010 ,7,1,2.,12.0,0.,12.0,0.,12.0,0.,12.0
1979-07-24 03:40:41.010 ,7,1,0.,12.0,0.,12.0,0.,12.0,0.,12.0
1979-07-24 03:41:41.010 ,0,0,2.,12.0,0.,12.0,0.,12.0,0.,12.0
1979-07-24 03:41:53.010 ,0,0,0.,12.0,0.,12.0,0.,12.0,0.,12.0
1979-07-24 03:42:05.010 ,0,0,,0,,0,,0,,0
1979-07-24 03:42:17.010 ,0,0,,0,,0,,0,,0
1979-07-24 03:42:05.010 ,0,0,0.,12.0,0.,12.0,0.,12.0,0.,12.0
1979-07-24 03:42:17.010 ,0,0,0.,12.0,0.,12.0,0.,12.0,0.,12.0
1979-07-24 03:42:29.010 ,5,0,0.,12.0,0.,12.0,0.,12.0,0.,12.0
1979-07-24 03:42:41.010 ,5,0,0.,12.0,0.,12.0,0.,12.0,0.,12.0
1979-07-24 03:42:53.010 ,5,0,1.,12.0,0.,12.0,0.,12.0,0.,12.0
1979-07-24 03:43:05.010 ,5,0,0.,12.0,0.,12.0,0.,12.0,0.,12.0
1979-07-24 03:43:17.010 ,4,0,0.,12.0,0.,12.0,0.,12.0,0.,12.0
1979-07-24 03:43:29.010 ,4,0,1.,12.0,0.,12.0,0.,12.0,0.,12.0
1979-07-24 03:43:41.010 ,4,0,0.,12.0,0.,12.0,0.,12.0,0.,12.0
1979-07-24 03:43:53.010 ,4,0,0.,12.0,0.,12.0,0.,12.0,0.,12.0
1979-07-24 03:44:05.010 ,3,0,0.,12.0,0.,12.0,0.,12.0,0.,12.0
1979-07-24 03:44:17.010 ,3,0,0.,12.0,0.,12.0,0.,12.0,0.,12.0
1979-07-24 03:44:29.010 ,3,0,0.,12.0,0.,12.0,0.,12.0,0.,12.0
1979-07-24 03:44:41.010 ,3,0,0.,12.0,0.,12.0,0.,12.0,0.,12.0
1979-07-24 03:44:53.010 ,2,0,0.,12.0,0.,12.0,0.,12.0,0.,12.0
1979-07-24 03:45:05.010 ,2,0,0.,12.0,0.,12.0,0.,12.0,0.,12.0
1979-07-24 03:45:17.010 ,2,0,1.,12.0,0.,12.0,0.,12.0,0.,12.0
1979-07-24 03:45:29.010 ,2,0,0.,12.0,0.,12.0,0.,12.0,0.,12.0
1979-07-24 03:45:41.010 ,1,0,0.,12.0,0.,12.0,0.,12.0,0.,12.0
1979-07-24 03:45:53.010 ,1,0,0.,12.0,0.,12.0,0.,12.0,0.,12.0
1979-07-24 03:46:05.010 ,1,0,0.,12.0,0.,12.0,0.,12.0,0.,12.0
1979-07-24 03:46:17.010 ,1,0,2.,12.0,0.,12.0,0.,12.0,0.,12.0
1979-07-24 03:46:29.010 ,0,0,3.,12.0,0.,12.0,0.,12.0,0.,12.0
1979-07-24 03:46:41.010 ,0,0,1.,12.0,0.,12.0,0.,12.0,0.,12.0
1979-07-24 03:46:53.010 ,0,0,2.,12.0,0.,12.0,0.,12.0,0.,12.0
1979-07-24 03:47:05.010 ,0,0,0.,12.0,0.,12.0,0.,12.0,0.,12.0
1979-07-24 03:47:17.010 ,0,0,1.,12.0,0.,12.0,0.,12.0,0.,12.0
1979-07-24 03:47:29.010 ,0,0,1.,12.0,0.,12.0,0.,12.0,0.,12.0
1979-07-24 03:47:41.010 ,0,0,1.,12.0,0.,12.0,0.,12.0,0.,12.0
1979-07-24 03:47:53.010 ,0,0,3.,12.0,0.,12.0,0.,12.0,0.,12.0
1979-07-24 03:48:05.010 ,1,0,0.,12.0,0.,12.0,0.,12.0,0.,12.0
1979-07-24 03:48:17.010 ,1,0,2.,12.0,0.,12.0,0.,12.0,0.,12.0
1979-07-24 03:48:29.010 ,1,0,0.,12.0,0.,12.0,0.,12.0,0.,12.0
1979-07-24 03:48:41.010 ,1,0,0.,12.0,0.,12.0,0.,12.0,0.,12.0
1979-07-24 03:48:53.010 ,2,0,0.,12.0,0.,12.0,0.,12.0,0.,12.0
1979-07-24 03:49:05.010 ,2,0,1.,12.0,0.,12.0,0.,12.0,0.,12.0
1979-07-24 03:49:17.010 ,2,0,0.,12.0,0.,12.0,0.,12.0,0.,12.0
1979-07-24 03:49:29.010 ,2,0,0.,12.0,0.,12.0,0.,12.0,0.,12.0
1979-07-24 03:49:41.000 ,3,0,0.,12.0,0.,12.0,0.,12.0,0.,12.0
1979-07-24 03:49:53.000 ,3,0,0.,12.0,0.,12.0,0.,12.0,0.,12.0
1979-07-24 03:50:05.000 ,3,0,1.,12.0,0.,12.0,0.,12.0,0.,12.0
1979-07-24 03:50:17.000 ,3,0,0.,12.0,0.,12.0,0.,12.0,0.,12.0
1979-07-24 03:50:29.000 ,4,0,0.,12.0,0.,12.0,0.,12.0,0.,12.0
1979-07-24 03:50:41.000 ,4,0,0.,12.0,0.,12.0,0.,12.0,0.,12.0
1979-07-24 03:50:53.000 ,4,0,0.,12.0,0.,12.0,0.,12.0,0.,12.0
1979-07-24 03:51:05.000 ,4,0,0.,12.0,0.,12.0,0.,12.0,0.,12.0
1979-07-24 03:51:17.000 ,5,0,0.,12.0,0.,12.0,0.,12.0,0.,12.0
1979-07-24 03:51:29.000 ,5,0,0.,12.0,0.,12.0,0.,12.0,0.,12.0
1979-07-24 03:51:41.000 ,5,0,1.,12.0,0.,12.0,0.,12.0,0.,12.0
1979-07-24 03:51:53.000 ,5,0,0.,12.0,0.,12.0,0.,12.0,0.,12.0
1979-07-24 03:52:05.000 ,6,0,0.,12.0,0.,12.0,0.,12.0,0.,12.0
1979-07-24 03:52:17.000 ,6,0,0.,12.0,0.,12.0,0.,12.0,0.,12.0
1979-07-24 03:52:29.000 ,6,0,0.,12.0,0.,12.0,0.,12.0,0.,12.0
1979-07-24 03:52:41.000 ,6,0,2.,12.0,0.,12.0,0.,12.0,0.,12.0
1979-07-24 03:52:53.000 ,7,0,1.,12.0,0.,12.0,0.,12.0,0.,12.0
1979-07-24 03:53:05.000 ,7,0,0.,12.0,0.,12.0,0.,12.0,0.,12.0
1979-07-24 03:53:17.000 ,7,0,0.,12.0,0.,12.0,0.,12.0,0.,12.0
1979-07-24 03:53:29.000 ,7,0,0.,12.0,0.,12.0,0.,12.0,0.,12.0
1979-07-24 03:53:41.000 ,7,0,0.,12.0,0.,12.0,0.,12.0,0.,12.0
1979-07-24 03:53:53.000 ,7,0,0.,12.0,0.,12.0,0.,12.0,0.,12.0
1979-07-24 03:54:05.000 ,7,0,0.,12.0,0.,12.0,0.,12.0,0.,12.0
1979-07-24 03:54:17.000 ,7,0,0.,12.0,0.,12.0,0.,12.0,0.,12.0
1979-07-24 03:54:29.000 ,6,0,0.,12.0,0.,12.0,0.,12.0,0.,12.0
1979-07-24 03:54:41.000 ,6,0,1.,12.0,0.,12.0,0.,12.0,0.,12.0
1979-07-24 03:54:53.000 ,6,0,0.,12.0,0.,12.0,0.,12.0,0.,12.0
1979-07-24 03:55:05.000 ,6,0,0.,12.0,0.,12.0,0.,12.0,0.,12.0
1979-07-24 03:55:41.000 ,5,0,0.,12.0,0.,12.0,0.,12.0,0.,12.0
1979-07-24 03:55:53.000 ,5,0,0.,12.0,0.,12.0,0.,12.0,0.,12.0
1979-07-24 03:56:05.000 ,4,0,0.,12.0,0.,12.0,0.,12.0,0.,12.0
1979-07-24 03:56:17.000 ,4,0,0.,12.0,0.,12.0,0.,12.0,0.,12.0
1979-07-24 03:56:29.000 ,4,0,0.,12.0,0.,12.0,0.,12.0,0.,12.0
1979-07-24 03:56:41.000 ,4,0,0.,12.0,0.,12.0,0.,12.0,0.,12.0
1979-07-24 03:56:53.000 ,3,0,1.,12.0,0.,12.0,0.,12.0,0.,12.0
1979-07-24 03:57:05.000 ,3,0,0.,12.0,0.,12.0,0.,12.0,0.,12.0
1979-07-24 03:57:17.000 ,3,0,1.,12.0,0.,12.0,0.,12.0,0.,12.0
1979-07-24 03:57:29.000 ,3,0,0.,12.0,0.,12.0,0.,12.0,0.,12.0
1979-07-24 03:57:41.000 ,2,0,1.,12.0,0.,12.0,0.,12.0,0.,12.0
1979-07-24 03:57:53.000 ,2,0,0.,12.0,0.,12.0,0.,12.0,0.,12.0
1979-07-24 03:58:05.000 ,2,0,0.,12.0,0.,12.0,0.,12.0,0.,12.0
1979-07-24 03:58:17.000 ,2,0,0.,12.0,0.,12.0,0.,12.0,0.,12.0
1979-07-24 03:58:29.000 ,1,0,0.,12.0,0.,12.0,0.,12.0,0.,12.0
1979-07-24 03:58:41.000 ,1,0,1.,12.0,0.,12.0,0.,12.0,0.,12.0
1979-07-24 03:58:53.000 ,1,0,0.,12.0,0.,12.0,0.,12.0,0.,12.0
1979-07-24 03:59:05.000 ,1,0,0.,12.0,0.,12.0,0.,12.0,0.,12.0
1979-07-24 03:59:17.000 ,0,0,1.,12.0,0.,12.0,0.,12.0,0.,12.0
1979-07-24 03:59:29.000 ,0,0,2.,12.0,0.,12.0,0.,12.0,0.,12.0
1979-07-24 03:59:41.000 ,0,0,1.,12.0,0.,12.0,0.,12.0,0.,12.0
1979-07-24 03:59:53.000 ,0,0,3.,12.0,0.,12.0,0.,12.0,0.,12.0
1979-07-24 04:00:05.000 ,0,0,0.,12.0,0.,12.0,0.,12.0,0.,12.0
1979-07-24 04:00:17.000 ,0,0,2.,12.0,0.,12.0,0.,12.0,0.,12.0
1979-07-24 04:00:29.010 ,0,0,1.,12.0,0.,12.0,0.,12.0,0.,12.0
1979-07-24 04:00:41.010 ,0,0,1.,12.0,0.,12.0,0.,12.0,0.,12.0
1979-07-24 04:00:53.010 ,1,0,1.,12.0,0.,12.0,0.,12.0,0.,12.0
1979-07-24 04:01:05.010 ,1,0,0.,12.0,0.,12.0,0.,12.0,0.,12.0
1979-07-24 04:01:17.000 ,1,0,1.,12.0,0.,12.0,0.,12.0,0.,12.0
1979-07-24 04:01:29.010 ,1,0,2.,12.0,0.,12.0,0.,12.0,0.,12.0
1979-07-24 04:01:41.010 ,2,0,0.,12.0,0.,12.0,0.,12.0,0.,12.0
1979-07-24 04:01:53.010 ,2,0,1.,12.0,0.,12.0,0.,12.0,0.,12.0
1979-07-24 04:02:05.000 ,2,0,1.,12.0,0.,12.0,0.,12.0,0.,12.0
1979-07-24 04:02:17.010 ,2,0,0.,12.0,0.,12.0,0.,12.0,0.,12.0
1979-07-24 04:02:29.010 ,3,0,1.,12.0,0.,12.0,0.,12.0,0.,12.0
1979-07-24 04:02:41.010 ,3,0,0.,12.0,0.,12.0,0.,12.0,0.,12.0
1979-07-24 04:02:53.010 ,3,0,0.,12.0,0.,12.0,0.,12.0,0.,12.0
1979-07-24 04:03:05.010 ,3,0,0.,12.0,0.,12.0,0.,12.0,0.,12.0
1979-07-24 04:03:17.010 ,4,0,0.,12.0,0.,12.0,0.,12.0,0.,12.0
1979-07-24 04:03:29.010 ,4,0,0.,12.0,0.,12.0,0.,12.0,0.,12.0
1979-07-24 04:03:41.010 ,4,0,1.,12.0,0.,12.0,0.,12.0,0.,12.0
1979-07-24 04:03:53.010 ,4,0,0.,12.0,0.,12.0,0.,12.0,0.,12.0
1979-07-24 04:04:05.010 ,5,0,0.,12.0,0.,12.0,0.,12.0,0.,12.0
1979-07-24 04:04:17.010 ,5,0,0.,12.0,0.,12.0,0.,12.0,0.,12.0
1979-07-24 04:04:29.010 ,5,0,0.,12.0,0.,12.0,0.,12.0,0.,12.0
1979-07-24 04:04:41.010 ,5,0,1.,12.0,0.,12.0,0.,12.0,0.,12.0
1979-07-24 04:04:53.010 ,6,0,0.,12.0,0.,12.0,0.,12.0,0.,12.0
1979-07-24 04:05:05.010 ,6,0,0.,12.0,0.,12.0,0.,12.0,0.,12.0
1979-07-24 04:05:17.010 ,6,0,0.,12.0,0.,12.0,0.,12.0,0.,12.0
1979-07-24 04:05:29.010 ,6,0,1.,12.0,0.,12.0,0.,12.0,0.,12.0
1979-07-24 04:05:41.010 ,7,0,1.,12.0,0.,12.0,0.,12.0,0.,12.0
1979-07-24 04:05:53.010 ,7,0,0.,12.0,0.,12.0,0.,12.0,0.,12.0
1979-07-24 04:06:05.010 ,7,0,0.,12.0,0.,12.0,0.,12.0,0.,12.0
1979-07-24 04:06:17.010 ,7,0,0.,12.0,0.,12.0,0.,12.0,0.,12.0
1979-07-24 04:06:29.010 ,7,0,0.,12.0,0.,12.0,0.,12.0,0.,12.0
1979-07-24 04:06:41.010 ,7,0,0.,12.0,0.,12.0,0.,12.0,0.,12.0
1979-07-24 04:06:53.010 ,7,0,0.,12.0,0.,12.0,0.,12.0,0.,12.0
1979-07-24 04:07:05.010 ,7,0,0.,12.0,0.,12.0,0.,12.0,0.,12.0
1979-07-24 04:07:17.010 ,6,0,0.,12.0,0.,12.0,0.,12.0,0.,12.0
1979-07-24 04:07:29.010 ,6,0,1.,12.0,0.,12.0,0.,12.0,0.,12.0
1979-07-24 04:07:41.010 ,6,0,0.,12.0,0.,12.0,0.,12.0,0.,12.0
1979-07-24 04:07:53.010 ,6,0,0.,12.0,0.,12.0,0.,12.0,0.,12.0
1979-07-24 04:08:05.010 ,5,0,1.,12.0,0.,12.0,0.,12.0,0.,12.0
1979-07-24 04:08:17.010 ,5,0,1.,12.0,0.,12.0,0.,12.0,0.,12.0
1979-07-24 04:08:29.010 ,5,0,1.,12.0,0.,12.0,0.,12.0,0.,12.0
1979-07-24 04:08:41.010 ,5,0,0.,12.0,0.,12.0,0.,12.0,0.,12.0
1979-07-24 04:08:53.010 ,4,0,0.,12.0,0.,12.0,0.,12.0,0.,12.0
1979-07-24 04:09:05.010 ,4,0,0.,12.0,0.,12.0,0.,12.0,0.,12.0
1979-07-24 04:09:17.010 ,4,0,0.,12.0,0.,12.0,0.,12.0,0.,12.0
1979-07-24 04:09:29.010 ,4,0,0.,12.0,0.,12.0,0.,12.0,0.,12.0
1979-07-24 04:09:41.000 ,0,0,1.,12.0,0.,12.0,0.,12.0,0.,12.0
1979-07-24 04:09:53.000 ,0,0,0.,12.0,0.,12.0,0.,12.0,0.,12.0
1979-07-24 04:10:05.000 ,0,0,1.,12.0,0.,12.0,0.,12.0,0.,12.0
1979-07-24 04:10:17.000 ,0,0,0.,12.0,0.,12.0,0.,12.0,0.,12.0
1979-07-24 04:10:29.000 ,2,0,1.,12.0,0.,12.0,0.,12.0,0.,12.0
1979-07-24 04:10:41.000 ,2,0,0.,12.0,0.,12.0,0.,12.0,0.,12.0
1979-07-24 04:10:53.000 ,2,0,0.,12.0,0.,12.0,0.,12.0,0.,12.0
1979-07-24 04:11:05.000 ,2,0,0.,12.0,0.,12.0,0.,12.0,0.,12.0
1979-07-24 04:11:17.000 ,1,0,0.,12.0,0.,12.0,0.,12.0,0.,12.0
1979-07-24 04:11:29.000 ,1,0,1.,12.0,0.,12.0,0.,12.0,0.,12.0
1979-07-24 04:11:41.000 ,1,0,0.,12.0,0.,12.0,0.,12.0,0.,12.0
1979-07-24 04:11:53.000 ,1,0,0.,12.0,0.,12.0,0.,12.0,0.,12.0
1979-07-24 04:12:05.000 ,0,0,0.,12.0,0.,12.0,0.,12.0,0.,12.0
1979-07-24 04:12:17.000 ,0,0,2.,12.0,0.,12.0,0.,12.0,0.,12.0
1979-07-24 04:12:29.000 ,0,0,3.,12.0,0.,12.0,0.,12.0,0.,12.0
1979-07-24 04:12:41.000 ,0,0,0.,12.0,0.,12.0,0.,12.0,0.,12.0
1979-07-24 04:12:53.000 ,0,0,1.,12.0,0.,12.0,0.,12.0,0.,12.0
1979-07-24 04:13:05.000 ,0,0,1.,12.0,0.,12.0,0.,12.0,0.,12.0
1979-07-24 04:13:17.000 ,0,0,2.,12.0,0.,12.0,0.,12.0,0.,12.0
1979-07-24 04:13:29.000 ,0,0,1.,12.0,0.,12.0,0.,12.0,0.,12.0
1979-07-24 04:13:41.000 ,1,0,0.,12.0,0.,12.0,0.,12.0,0.,12.0
1979-07-24 04:13:53.000 ,1,0,1.,12.0,0.,12.0,0.,12.0,0.,12.0
1979-07-24 04:14:05.000 ,1,0,0.,12.0,0.,12.0,0.,12.0,0.,12.0
1979-07-24 04:14:17.000 ,1,0,0.,12.0,0.,12.0,0.,12.0,0.,12.0
1979-07-24 04:14:29.000 ,0,0,1.,12.0,0.,12.0,0.,12.0,0.,12.0
1979-07-24 04:14:41.000 ,0,0,,0,,0,,0,,0
1979-07-24 04:14:53.000 ,0,0,,0,,0,,0,,0
1979-07-24 04:15:05.000 ,0,0,,0,,0,,0,,0
1979-07-24 04:14:53.000 ,2,0,0.,12.0,0.,12.0,0.,12.0,0.,12.0
1979-07-24 04:15:05.000 ,2,0,0.,12.0,0.,12.0,0.,12.0,0.,12.0
1979-07-24 04:15:17.000 ,3,0,1.,12.0,0.,12.0,0.,12.0,0.,12.0
1979-07-24 04:15:29.000 ,3,0,1.,12.0,0.,12.0,0.,12.0,0.,12.0
1979-07-24 04:15:41.000 ,3,0,3.,12.0,0.,12.0,0.,12.0,0.,12.0
1979-07-24 04:15:53.000 ,3,0,1.,12.0,0.,12.0,0.,12.0,0.,12.0
1979-07-24 04:16:05.000 ,4,0,0.,12.0,0.,12.0,0.,12.0,0.,12.0
1979-07-24 04:16:17.000 ,4,0,0.,12.0,0.,12.0,0.,12.0,0.,12.0
1979-07-24 04:16:29.000 ,4,0,0.,12.0,0.,12.0,0.,12.0,0.,12.0
1979-07-24 04:16:41.000 ,4,0,0.,12.0,0.,12.0,0.,12.0,0.,12.0
1979-07-24 04:16:53.000 ,5,0,0.,12.0,0.,12.0,0.,12.0,0.,12.0
1979-07-24 04:17:05.000 ,5,0,0.,12.0,0.,12.0,0.,12.0,0.,12.0
1979-07-24 04:17:17.000 ,5,0,0.,12.0,0.,12.0,0.,12.0,0.,12.0
1979-07-24 04:17:29.000 ,5,0,0.,12.0,0.,12.0,0.,12.0,0.,12.0
1979-07-24 04:17:41.000 ,6,0,0.,12.0,0.,12.0,0.,12.0,0.,12.0
1979-07-24 04:17:53.000 ,6,0,0.,12.0,0.,12.0,0.,12.0,0.,12.0
1979-07-24 04:18:05.000 ,6,0,0.,12.0,0.,12.0,0.,12.0,0.,12.0